Terminal Aerodrome Forecast
Issued by NWS

Home | Current Version | Previous Version | Text Only | Print | Product List | Glossary On
Versions: 1 2 3 4 5 6 7 8 9 10 11 12 13
883
FTUS44 KCRP 141737
TAFLRD
TAF
KLRD 141737Z 1418/1518 16012KT P6SM SCT250
     FM142300 15007KT P6SM FEW250
     FM150900 13005KT 2SM BR SCT006
     FM151200 VRB03KT 1/2SM FG OVC003
     FM151530 23005KT 2SM BR BKN005
     FM151630 30006KT P6SM FEW011=

USA.gov is the U.S. government's official web portal to all federal, state and local government web resources and services.